GEFSMA_500_meanwind_120.txt.gz
Wind_Speed
15 16 16 16 16 15 15 15 15 14 15 15 15 16 17 18 19 20 20 22 23 23 22 23 22 21 20 20 19 18 17 17 16 15 15 14 14 14 13 13 13 12 11
16 16 16 16 16 16 15 15 14 14 14 14 15 16 17 18 20 21 21 22 24 24 24 24 24 23 22 21 21 20 19 18 17 16 16 15 15 15 14 13 13 12 11
16 16 16 16 16 15 15 14 13 13 13 13 14 16 17 18 19 21 22 22 23 24 24 24 25 24 23 22 22 21 21 20 19 18 17 17 17 16 15 14 13 13 12
16 16 16 16 16 15 14 13 12 12 12 12 13 15 16 18 19 21 22 22 23 24 25 25 26 25 25 24 23 23 22 21 20 20 19 18 18 17 17 15 14 14 13
16 16 16 15 15 14 13 12 12 11 11 11 12 14 15 17 18 20 21 22 23 24 25 25 27 26 25 25 25 24 23 23 22 21 21 20 19 19 18 17 15 14 14
16 16 16 15 15 14 13 12 11 11 11 11 12 13 14 17 17 19 20 22 23 24 25 26 26 27 26 26 25 25 24 23 24 23 22 22 20 20 19 18 17 16 15
16 16 16 16 15 14 12 11 10 10 10 10 11 12 13 16 17 18 20 21 23 24 26 26 27 26 27 27 26 25 26 24 24 25 23 23 22 21 21 20 19 17 16
16 16 16 15 14 13 12 11 10 9 9 9 10 11 13 15 16 18 19 20 22 23 25 26 26 27 28 28 26 26 26 26 25 25 25 24 23 22 22 21 20 18 18
16 17 16 15 14 13 12 10 9 9 9 8 9 10 12 14 15 17 18 19 21 23 25 26 27 27 27 28 27 27 27 27 28 26 27 26 25 24 23 22 21 20 19
16 17 16 16 15 13 12 11 10 8 8 8 8 9 10 12 15 17 17 18 20 22 24 26 27 27 27 27 28 28 28 27 28 27 27 27 27 26 25 24 23 22 21
16 17 17 16 15 13 12 11 9 8 7 7 8 8 9 11 13 15 17 18 19 21 23 25 26 27 27 28 28 28 28 28 27 27 26 27 27 26 26 25 24 23 22
17 17 17 16 14 13 12 11 9 8 7 6 7 8 8 10 12 14 16 17 18 19 21 23 25 26 26 28 29 28 28 27 27 27 27 27 26 26 26 26 25 25 24
16 16 16 15 14 13 12 11 9 8 7 6 7 7 8 10 12 13 15 16 17 18 20 22 24 25 26 28 28 28 28 28 28 28 28 28 28 27 27 27 27 26 26
16 16 16 15 14 13 12 11 10 8 7 7 7 7 8 9 11 12 14 15 16 17 19 21 23 24 25 26 28 28 28 29 29 29 29 29 28 27 27 27 27 27 27
16 16 16 15 14 13 12 11 10 9 8 8 7 8 8 10 11 12 13 14 16 17 19 20 22 23 25 26 27 28 28 29 29 29 29 29 28 28 29 28 28 28 28
17 17 16 15 15 14 13 12 11 10 9 8 8 8 9 10 11 12 12 13 14 16 17 19 21 22 23 24 25 26 27 29 30 30 30 29 29 29 28 28 28 28 29
18 17 17 16 16 15 14 13 12 10 9 9 8 8 8 9 10 11 12 13 13 15 16 18 19 21 23 23 24 25 26 28 28 29 29 30 29 29 29 28 29 29 29
19 18 18 17 16 16 15 14 13 11 10 9 8 8 8 8 10 10 11 13 13 14 16 17 18 20 22 23 24 24 25 27 28 29 30 31 30 30 30 30 29 29 29
20 20 19 19 18 17 16 15 14 13 12 10 10 9 9 9 10 10 12 13 14 14 16 18 18 19 21 23 24 24 25 26 27 29 30 31 31 31 32 32 31 31 30
22 22 21 20 19 18 17 16 15 14 13 12 12 11 11 11 11 11 12 13 14 14 16 17 18 19 20 21 23 24 25 26 27 28 29 30 31 31 32 32 33 32 31
24 23 23 22 22 21 19 18 17 16 15 14 14 13 13 13 12 12 13 14 14 15 16 17 17 19 19 20 21 23 24 24 25 27 28 30 31 31 31 32 32 32 33
26 26 25 24 23 23 22 21 20 18 17 17 16 15 15 14 14 14 14 14 14 15 17 18 19 20 21 21 21 21 22 23 24 26 27 28 30 31 31 32 32 31 31
29 28 27 26 25 24 24 23 22 21 20 19 18 18 17 17 16 15 15 15 15 16 17 18 19 19 20 21 21 21 22 22 24 25 26 27 28 29 30 31 31 32 32
32 31 30 29 28 27 26 25 25 25 23 22 21 20 19 19 18 18 17 17 17 16 16 17 18 20 20 20 21 21 21 22 22 23 24 26 28 29 30 31 31 32 33
34 34 33 32 31 29 29 28 28 27 26 25 24 22 22 21 21 20 19 19 18 18 18 17 18 18 19 20 20 20 21 21 22 23 24 25 27 29 30 31 31 32 33
37 37 36 35 34 32 31 30 30 29 28 27 26 25 23 23 22 22 21 20 20 19 19 19 18 18 18 19 19 20 20 21 22 23 24 25 26 28 29 30 31 31 32

GEFSMA_500_meanwind_126.txt.gz
Wind_Speed
15 16 16 16 16 16 16 16 15 15 14 14 13 13 14 14 15 16 16 17 17 18 19 19 19 18 18 18 16 15 15 14 14 13 11 11 11 11 10 10 10 9 9
16 16 16 16 16 16 16 15 15 15 14 13 13 13 13 14 15 15 15 17 18 18 19 20 19 19 18 18 18 16 16 16 15 14 13 12 12 12 11 11 10 9 8
16 17 17 17 16 16 16 15 15 14 13 13 12 12 12 13 14 15 15 16 17 18 19 20 20 19 19 19 19 19 18 17 16 16 15 14 13 13 13 12 11 10 9
17 17 17 17 17 17 16 15 14 14 13 12 11 11 11 13 14 14 15 16 17 19 19 20 21 21 19 20 20 19 19 18 17 17 17 16 15 15 15 14 13 11 10
18 18 18 18 17 17 16 15 14 13 13 12 11 10 10 11 13 14 15 16 18 19 20 20 21 21 21 21 21 21 20 19 19 18 18 17 17 16 16 15 15 13 12
18 18 18 18 18 17 16 15 14 13 12 11 11 10 10 11 12 13 15 15 17 19 19 20 21 21 21 22 23 22 21 21 20 20 19 19 18 18 18 17 16 15 13
18 18 18 18 18 18 16 16 15 13 12 12 11 10 10 10 12 12 14 16 16 17 19 19 20 22 21 23 24 23 22 22 22 21 21 20 20 20 19 19 17 16 14
18 18 19 19 19 18 17 16 15 13 13 11 10 9 9 10 11 11 13 15 16 17 18 19 21 21 21 22 24 24 24 23 23 22 22 22 22 22 21 20 19 18 16
18 19 19 19 19 18 17 16 15 14 13 11 10 9 9 9 10 11 12 14 16 17 18 18 19 21 21 21 23 23 24 24 24 23 23 22 22 23 22 21 21 20 19
18 19 19 19 19 18 17 16 16 14 13 12 10 9 9 9 9 10 12 14 15 16 17 18 19 20 21 21 22 23 24 25 25 25 23 23 23 23 23 23 22 21 20
18 19 19 19 19 18 17 17 16 15 13 12 10 9 9 9 9 9 11 13 15 16 16 18 19 20 20 21 22 23 24 25 25 25 24 24 24 24 24 24 24 23 22
18 19 19 19 19 18 17 17 17 15 14 12 11 10 9 9 8 9 10 12 14 16 16 18 19 20 20 21 22 23 24 25 25 25 25 25 25 25 25 26 25 24 24
18 19 19 19 18 18 18 17 16 15 14 13 11 10 9 9 9 9 9 11 13 15 16 18 18 19 20 21 22 23 24 25 26 26 26 26 26 26 25 27 27 26 25
19 19 19 19 19 19 18 17 16 15 14 13 12 11 10 9 9 9 10 11 13 14 16 17 18 19 21 22 22 23 25 26 26 26 27 27 27 26 26 27 28 27 27
19 19 19 19 19 19 19 18 17 15 14 13 12 12 12 11 10 10 11 12 13 14 15 16 17 18 20 22 22 23 24 26 26 26 27 27 27 27 27 27 28 27 26
20 20 20 20 20 20 19 18 17 16 15 13 13 12 12 11 10 11 11 13 14 14 15 16 16 17 19 21 21 22 23 24 26 26 26 26 27 26 26 26 26 27 27
21 21 21 21 21 21 20 19 18 17 16 15 14 13 12 12 12 12 12 13 14 15 15 16 17 17 18 19 20 22 23 23 25 26 27 27 27 27 27 27 26 27 28
23 23 23 22 22 22 21 20 20 19 17 16 15 14 14 13 13 13 13 13 14 15 15 16 17 17 17 19 20 21 22 23 24 25 26 27 26 27 27 28 28 27 27
25 25 24 24 24 23 22 22 21 20 19 18 17 16 15 15 15 15 15 14 15 15 15 16 17 18 18 18 20 21 22 23 24 25 25 26 26 27 28 28 28 28 28
27 27 27 26 26 25 25 24 23 23 21 20 19 18 17 17 17 16 16 16 16 16 17 17 17 18 19 19 19 21 22 22 23 25 25 26 26 27 28 29 29 30 30
29 29 29 29 28 28 27 27 26 25 24 23 21 20 20 19 19 18 18 18 18 18 19 18 18 19 20 20 20 21 22 23 23 24 25 26 26 27 28 29 29 29 30
31 31 31 31 31 30 30 30 29 28 27 26 25 23 22 22 21 21 21 20 20 20 20 20 19 19 20 21 22 21 21 22 23 24 25 26 27 27 27 28 29 29 29
34 34 34 34 33 33 33 33 32 31 30 29 28 27 25 24 24 23 23 22 22 22 22 22 21 21 21 21 23 23 22 22 23 24 24 25 26 27 27 28 28 29 29
36 36 37 36 36 36 35 35 34 34 33 32 31 30 29 27 26 26 26 25 24 24 23 23 23 22 22 22 23 23 23 23 24 24 24 24 25 26 27 28 28 29 29
38 39 39 39 38 37 37 36 36 35 35 34 33 32 32 31 29 28 28 27 27 26 25 25 24 24 23 23 24 24 24 23 24 24 24 24 24 24 25 26 27 27 28
41 41 41 40 40 39 38 38 38 37 37 36 35 34 34 33 32 32 31 30 29 28 28 27 26 26 25 24 24 24 24 24 24 24 25 25 24 24 24 25 26 26 26

GEFSMA_500_meanwind_132.txt.gz
Wind_Speed
12 12 13 14 14 13 13 13 12 12 11 11 11 11 11 11 12 13 13 14 14 14 15 16 17 16 16 15 14 13 13 13 12 13 12 12 12 12 12 13 12 12 13
12 13 13 13 13 13 13 13 12 12 11 11 10 9 9 10 11 13 13 14 14 15 16 16 17 18 18 17 16 15 14 14 13 13 13 12 12 13 12 12 13 12 12
12 13 13 13 13 13 13 13 12 11 11 10 9 9 9 9 10 12 13 14 14 15 16 17 17 18 18 18 17 16 15 15 15 14 14 14 13 13 14 13 13 12 12
12 13 13 14 14 14 14 13 12 11 10 10 9 9 8 8 9 11 12 13 14 16 17 17 18 18 19 18 18 18 17 17 16 16 16 15 15 15 14 14 13 12 12
12 13 14 14 14 14 14 13 12 11 11 10 9 8 8 7 8 10 12 13 13 15 17 18 18 18 18 19 18 19 18 18 18 18 17 17 16 16 15 15 14 13 12
13 14 14 14 15 14 14 13 13 12 11 10 9 8 7 7 8 9 11 13 13 14 16 17 18 19 18 18 19 19 19 19 19 19 19 18 18 17 17 16 15 14 14
13 14 14 15 15 15 14 13 13 12 12 11 9 8 7 7 8 9 11 12 13 14 15 17 18 18 19 19 19 20 20 20 20 21 20 20 19 19 19 18 17 16 15
13 14 14 15 15 15 15 14 13 13 12 11 10 8 7 6 7 9 10 12 13 15 16 17 17 18 19 19 20 20 20 21 21 21 21 21 21 20 20 20 19 18 17
12 13 14 14 15 15 15 15 14 14 13 12 10 9 7 6 6 7 10 12 13 15 16 17 17 18 19 19 20 21 22 22 22 22 22 22 22 22 21 21 21 20 19
12 13 14 14 15 16 16 15 15 15 14 13 11 9 7 7 6 6 8 11 13 14 15 17 17 18 18 19 20 21 22 22 23 23 23 24 24 24 24 23 22 22 21
12 13 14 15 15 16 16 16 15 15 15 13 12 10 8 7 6 6 7 9 11 13 15 16 17 18 18 19 20 21 22 23 24 23 23 24 25 25 25 24 24 23 23
13 14 14 15 16 16 17 16 16 16 15 14 12 11 9 8 7 7 7 8 10 13 15 16 17 18 19 19 20 20 22 23 24 25 25 24 24 24 25 25 25 25 24
13 14 15 16 16 17 17 18 17 17 16 15 14 12 10 9 9 8 8 9 11 12 14 16 17 17 19 20 20 21 22 23 24 25 25 25 26 25 25 25 26 26 25
14 15 15 16 17 18 18 18 18 17 17 15 14 13 11 10 10 9 9 10 11 12 14 15 16 18 20 21 21 22 23 24 24 25 26 26 26 27 27 27 27 27 27
15 16 17 17 18 19 19 19 18 18 17 16 15 13 12 11 11 10 10 11 12 13 14 16 17 18 20 21 22 23 24 25 26 26 27 27 28 28 28 28 29 29 29
16 17 18 19 20 20 19 19 19 19 18 17 16 15 14 13 12 12 12 12 13 14 15 16 17 19 20 21 22 23 24 25 27 28 28 29 29 29 29 29 30 30 30
18 19 20 20 21 21 21 21 20 20 19 19 17 16 16 15 14 14 14 14 14 15 16 17 18 19 20 21 22 23 24 25 27 28 29 30 30 30 30 30 31 31 31
19 20 21 22 22 23 23 23 22 22 21 20 19 19 18 17 17 16 16 16 16 17 18 19 20 20 21 22 23 23 24 25 27 28 29 30 30 30 31 31 31 31 31
22 22 24 24 25 25 25 25 24 24 23 22 21 21 20 20 19 19 19 19 18 19 19 20 21 21 21 22 23 24 24 25 26 27 28 29 30 30 31 31 31 31 31
24 25 26 27 27 27 27 27 26 26 25 24 24 23 22 22 21 21 21 21 21 21 21 22 22 22 22 22 23 24 25 26 26 26 27 29 30 31 31 32 32 32 32
27 28 29 29 30 30 30 29 29 28 28 27 27 26 25 25 24 24 24 23 24 24 24 24 24 24 24 24 24 25 26 27 27 27 28 29 30 30 31 32 32 32 32
29 30 31 32 32 32 32 32 31 31 31 31 30 30 29 28 27 27 27 26 26 26 26 26 26 26 26 26 26 26 27 27 28 29 29 30 31 31 31 32 32 32 32
32 33 34 34 35 35 35 35 35 34 34 34 34 33 32 32 30 30 30 30 29 28 28 28 28 28 29 29 28 28 28 28 29 29 30 30 31 32 32 32 33 33 33
35 36 37 37 37 37 38 38 38 38 38 37 37 36 35 34 34 33 33 32 32 31 31 31 31 31 31 31 31 30 30 29 29 30 30 30 31 31 32 33 33 33 33
37 38 39 39 40 40 40 41 40 40 39 38 38 38 38 37 36 36 35 34 35 35 35 34 34 34 34 33 34 33 32 32 31 31 31 31 31 31 32 32 32 33 33
40 41 41 41 42 42 42 42 42 41 40 40 40 40 40 39 38 37 37 36 36 36 37 36 36 36 36 35 36 36 34 34 34 33 32 32 31 31 32 33 33 33 34

GEFSMA_500_meanwind_138.txt.gz
Wind_Speed
12 12 12 12 12 12 12 12 12 11 11 10 9 8 7 7 8 9 10 10 11 11 11 12 14 14 15 14 13 12 12 13 14 14 14 13 12 12 13 13 13 13 13
12 12 12 13 13 13 13 13 12 11 11 10 9 8 7 6 7 8 9 10 10 11 11 12 14 15 15 15 15 14 14 14 14 14 15 14 13 13 13 13 13 13 13
12 12 13 13 13 13 13 13 12 12 11 10 9 8 7 6 7 8 9 10 10 11 12 13 14 15 16 16 16 15 15 15 15 15 16 15 15 14 14 13 13 14 13
12 12 13 14 13 13 13 13 13 12 11 10 9 8 7 6 5 7 9 10 11 11 11 13 14 15 17 17 17 16 16 16 15 16 16 17 16 16 15 15 15 14 14
12 12 13 14 14 14 14 13 13 12 11 10 10 9 8 6 5 6 8 9 10 11 11 13 14 15 16 17 17 17 16 16 16 16 17 18 18 17 16 16 15 15 15
12 13 13 14 14 14 14 13 13 12 11 11 10 9 9 7 4 5 7 9 10 11 11 13 14 15 16 17 17 18 18 17 17 17 17 17 18 18 17 17 16 16 15
12 12 13 14 14 14 14 14 13 13 12 12 11 10 9 7 5 4 6 8 10 11 12 13 14 15 16 17 17 18 18 19 18 19 18 18 18 18 18 18 17 17 16
12 12 13 14 15 15 15 14 14 13 13 12 11 11 10 8 6 4 5 7 9 10 12 13 14 15 16 17 17 18 18 19 19 20 20 19 19 19 19 20 19 18 17
12 13 13 14 15 15 15 15 15 14 14 13 12 11 11 9 7 5 4 6 8 10 12 13 14 16 16 17 17 18 18 19 20 21 21 21 21 21 20 21 21 20 19
12 13 13 14 15 16 16 16 16 15 15 14 13 12 11 10 9 7 6 5 7 10 11 13 14 16 16 17 17 18 19 19 21 22 22 23 23 23 23 22 22 22 21
13 13 13 14 15 16 16 17 17 16 15 15 14 13 12 11 10 8 7 6 7 9 11 13 14 16 16 17 18 18 19 20 20 21 23 24 24 25 25 24 24 23 23
12 13 13 14 15 16 16 17 17 16 16 16 15 13 12 12 11 10 8 7 7 8 11 13 14 15 17 17 18 19 20 21 21 22 23 24 26 26 26 26 26 26 25
13 14 14 14 15 15 16 17 17 17 16 16 16 15 14 13 12 11 10 9 8 9 11 12 15 16 17 18 19 20 21 21 22 23 24 24 26 27 27 27 27 27 27
13 14 14 15 15 16 16 17 18 18 17 17 17 16 15 15 14 13 11 11 10 11 12 13 15 17 17 18 20 21 22 23 22 23 25 25 26 26 27 28 28 28 28
14 14 15 16 16 17 17 17 18 18 18 18 18 18 17 17 16 14 13 13 12 13 13 14 16 17 18 19 20 21 22 23 23 23 24 26 27 27 28 29 30 30 29
15 15 16 17 17 18 18 19 19 20 20 20 20 19 19 18 18 16 16 15 15 14 14 15 17 18 20 21 21 23 24 25 25 26 26 26 27 28 29 30 31 31 31
16 17 18 18 19 19 20 21 22 22 22 22 22 21 21 20 19 19 19 18 18 17 17 17 18 19 20 21 23 24 25 26 27 27 28 28 29 30 30 31 31 32 32
18 19 19 20 21 22 23 23 24 24 24 24 24 24 24 23 22 22 21 21 21 21 20 19 20 21 22 22 23 25 26 28 28 29 29 30 30 31 32 32 32 33 33
20 21 21 22 23 24 25 25 25 26 26 26 26 25 25 25 24 24 24 24 24 24 23 23 23 24 24 25 25 26 27 28 29 30 30 30 31 32 33 33 33 33 34
21 23 23 24 25 26 27 27 28 28 28 28 28 28 27 27 27 27 27 27 27 26 26 26 27 27 27 28 28 28 28 30 31 31 32 32 32 32 33 33 34 34 35
24 24 25 26 27 28 28 29 30 30 30 30 30 30 31 30 30 30 30 29 29 29 29 29 30 30 30 30 31 31 31 31 32 33 33 34 34 33 34 35 35 35 36
25 26 27 28 29 30 30 31 31 32 32 32 33 33 34 34 33 33 32 32 32 32 32 32 33 33 33 33 33 33 33 34 34 34 34 35 36 36 36 36 36 37 37
27 28 29 31 32 32 32 33 33 34 35 35 36 36 36 36 35 34 34 33 33 34 34 34 34 34 35 35 36 36 37 36 35 36 37 36 37 38 38 38 38 38 39
29 30 32 33 34 35 35 36 36 37 37 37 37 38 37 37 36 36 35 35 35 34 34 35 35 35 36 37 37 38 39 39 39 39 39 37 37 38 39 38 38 38 39
32 33 34 35 36 37 38 38 39 39 39 39 39 39 39 38 38 38 37 37 36 36 36 36 37 36 37 38 38 39 39 40 40 41 41 40 39 39 39 39 39 39 39
34 35 36 37 39 39 40 40 40 40 40 40 41 41 41 41 41 40 39 39 38 38 38 38 38 38 38 39 39 39 40 40 41 41 41 42 41 41 41 41 41 40 40

GEFSMA_500_meanwind_144.txt.gz
Wind_Speed
10 11 11 11 11 11 11 11 11 10 9 9 8 7 5 5 5 7 7 8 9 10 11 12 12 12 13 13 13 13 14 15 14 13 14 14 15 14 14 14 14 13 13
10 10 11 11 11 11 11 11 11 10 9 9 8 7 6 4 5 6 7 8 9 10 11 11 12 12 13 14 14 14 14 14 14 14 14 14 15 14 15 14 14 13 13
10 11 11 12 12 12 11 11 11 10 9 9 8 7 6 4 3 5 6 7 8 10 10 11 11 12 13 13 14 14 14 15 15 15 15 15 15 15 15 15 14 14 13
10 11 12 12 12 12 11 11 11 10 10 9 8 7 6 4 3 3 5 6 7 9 10 10 12 13 13 14 14 15 14 14 15 16 15 15 16 16 15 15 15 15 14
10 10 11 11 12 12 11 11 10 10 9 9 8 7 6 5 3 1 3 5 7 8 9 10 11 12 13 14 14 15 14 15 16 16 17 16 16 16 15 15 15 15 15
9 10 11 11 12 12 12 11 11 10 9 9 8 7 6 5 4 2 1 4 6 7 8 9 10 12 13 13 14 14 15 15 16 17 18 18 17 16 16 16 16 16 16
9 10 11 12 12 12 12 12 11 10 10 9 8 8 6 6 4 3 1 3 5 6 7 9 10 12 14 13 14 14 15 16 17 17 18 18 19 18 18 17 17 17 17
9 10 10 11 12 13 13 13 12 11 10 9 9 8 7 6 5 3 2 2 4 6 7 8 9 10 12 13 14 14 15 16 17 18 18 19 19 19 19 19 18 19 19
9 9 10 11 12 13 14 14 13 12 11 10 9 8 7 6 5 4 3 2 3 4 6 8 9 10 11 12 12 13 15 16 17 18 18 18 19 20 20 20 19 19 20
8 9 10 11 12 13 13 14 14 13 11 11 10 9 8 7 6 5 4 3 4 4 5 7 9 11 11 12 13 13 14 16 17 17 18 19 20 20 21 21 21 20 21
8 9 10 10 11 12 13 13 14 13 12 11 11 10 8 7 7 5 5 4 5 5 6 8 9 11 12 13 14 15 15 16 17 18 18 20 21 21 21 22 22 22 23
7 9 10 10 11 11 12 13 13 12 12 11 11 10 9 8 8 7 6 5 6 6 7 9 10 11 12 14 15 16 17 17 17 18 19 20 21 21 22 22 23 24 25
7 9 10 11 11 12 12 13 12 12 12 12 11 10 10 9 9 8 8 7 8 8 9 10 11 12 13 13 15 17 17 19 19 19 20 21 22 22 23 23 24 25 26
7 9 10 11 11 12 12 13 12 12 12 12 12 11 11 10 10 10 10 10 10 10 11 12 13 13 14 14 15 17 18 20 21 21 21 22 23 24 25 25 26 26 27
8 10 11 11 11 12 12 13 12 13 13 13 13 13 12 12 12 12 12 12 13 13 13 14 15 15 16 17 18 19 20 21 22 23 24 24 24 25 26 26 27 27 27
8 10 11 11 12 13 13 13 14 14 14 14 14 15 14 14 13 13 14 14 15 15 16 16 17 17 18 19 20 20 22 23 24 25 26 26 27 26 26 27 28 27 28
10 10 11 12 13 14 14 15 16 16 16 16 16 16 16 16 16 15 16 16 17 18 18 19 19 20 21 21 22 22 22 24 25 25 27 27 28 28 28 28 29 30 30
11 12 13 14 14 15 16 16 17 17 17 18 18 18 18 18 18 18 19 19 20 20 21 21 22 23 24 25 25 25 25 25 26 27 28 29 30 30 30 30 30 31 31
13 14 14 15 16 17 17 18 18 18 19 20 20 20 20 21 21 21 21 22 22 23 23 23 24 25 26 27 27 27 27 27 27 29 30 31 31 31 32 32 32 32 32
15 15 16 17 18 18 19 19 20 20 21 22 22 23 23 23 24 24 24 24 25 25 25 26 26 27 28 29 30 30 30 29 29 30 31 32 33 34 34 34 34 34 34
16 17 18 19 20 20 21 21 22 23 24 24 25 26 26 26 27 27 27 27 28 28 28 29 30 31 31 32 33 33 33 33 33 33 33 34 34 35 36 37 37 37 36
18 18 19 20 22 23 24 24 25 26 26 27 28 29 29 29 29 29 30 30 31 31 32 33 34 34 34 34 34 35 35 35 36 36 37 37 37 37 37 38 39 39 39
19 20 21 22 24 25 26 26 27 28 29 30 30 31 31 31 31 32 32 33 33 34 35 36 36 35 35 35 36 37 37 37 37 38 39 40 40 40 40 40 40 40 41
23 23 25 26 26 27 28 29 30 30 31 32 33 33 33 33 33 34 34 35 36 37 38 38 37 36 36 36 37 38 38 39 39 39 40 41 42 42 42 42 42 42 42
26 27 28 28 29 29 31 32 32 33 34 34 34 34 35 35 36 37 37 38 38 39 39 39 39 38 38 39 39 39 39 40 40 40 40 42 42 42 43 43 43 44 43
28 29 30 30 31 32 34 35 35 36 36 36 35 36 37 38 39 39 40 41 41 40 41 41 41 40 40 41 40 41 41 41 42 42 42 43 43 43 43 43 43 44 44

GEFSMA_500_meanwind_150.txt.gz
Wind_Speed
9 10 10 11 10 9 9 9 9 9 10 10 9 7 6 4 3 3 3 3 4 5 6 7 9 10 10 10 10 11 11 10 10 9 9 9 8 8 10 12 12 12 12
10 10 11 10 10 9 9 9 9 9 10 10 9 8 6 4 3 3 2 2 3 3 4 5 7 8 9 10 10 11 11 10 10 9 9 8 8 8 10 12 12 11 11
10 10 11 11 11 10 10 10 9 9 9 9 9 8 7 5 4 3 2 1 1 2 3 4 5 7 8 9 10 10 10 10 10 10 10 9 9 9 10 12 12 12 12
10 10 10 11 11 11 11 10 10 9 9 9 9 8 7 6 5 4 3 1 0 1 2 3 4 5 7 9 9 10 11 10 10 10 10 10 10 10 11 11 13 13 13
10 10 10 10 11 11 11 11 10 9 9 9 8 8 7 6 5 4 3 2 1 1 2 3 4 5 6 7 8 9 10 11 10 10 10 10 10 11 12 12 13 14 13
10 10 11 11 11 12 11 11 10 9 9 9 8 8 7 6 6 5 3 3 2 1 1 2 3 4 6 7 8 9 10 11 10 11 10 11 11 11 13 13 13 14 13
9 9 10 11 12 12 12 11 10 9 9 9 8 8 7 6 6 5 4 3 2 2 1 1 2 3 4 6 7 8 9 11 12 11 11 12 12 12 13 14 14 14 13
8 8 10 11 12 12 12 11 11 10 9 9 8 8 7 7 6 6 5 4 3 3 2 2 3 4 4 5 7 7 7 8 11 11 12 13 13 13 13 14 14 15 15
7 8 9 10 11 12 12 11 11 10 9 9 9 8 7 7 7 6 5 5 4 4 3 3 3 4 5 6 6 7 8 9 10 11 12 13 13 13 14 14 14 15 15
7 8 9 10 11 12 12 12 11 11 10 9 8 8 8 8 7 6 6 5 5 5 5 4 4 5 6 7 7 7 7 8 10 11 12 13 13 14 15 15 15 16 15
7 8 9 9 10 11 12 12 11 11 10 9 9 8 8 8 7 7 6 6 6 6 6 6 6 6 6 7 7 8 8 9 11 11 12 13 14 14 15 16 17 17 17
6 7 8 9 10 11 12 12 12 11 11 10 9 9 8 8 7 7 7 7 7 7 7 7 7 8 8 9 9 9 10 11 12 13 14 14 15 16 16 17 17 18 18
6 7 8 9 10 11 12 12 12 12 11 10 10 9 9 9 8 8 8 8 8 8 9 9 9 10 10 10 11 11 12 13 13 15 16 16 17 18 18 18 19 20 20
6 7 8 8 9 11 11 12 12 12 11 11 10 10 10 9 9 9 9 9 10 10 10 10 11 11 11 12 12 13 13 14 15 17 18 19 19 19 20 20 21 22 22
6 7 8 8 9 10 11 12 12 12 11 11 11 12 11 10 10 11 11 11 11 11 11 12 12 13 14 14 15 15 16 17 17 19 20 20 20 21 22 22 22 23 23
7 8 8 8 9 10 11 12 13 13 12 12 12 12 12 11 11 12 12 12 12 12 13 14 15 16 16 17 17 18 19 19 19 20 21 21 23 23 24 24 24 24 25
7 8 9 9 9 10 11 12 13 14 14 13 14 14 14 14 14 13 13 14 14 15 15 16 17 18 19 20 21 22 21 22 22 23 23 24 24 25 25 26 26 26 26
8 9 10 10 10 11 12 13 14 14 15 15 16 16 16 16 16 16 15 16 17 17 18 18 19 20 21 22 23 24 24 24 24 25 26 26 27 27 27 28 28 28 28
10 10 11 12 12 13 13 14 15 15 16 17 17 18 18 18 18 18 18 19 20 20 20 21 21 22 23 24 24 25 25 26 27 27 27 28 29 29 30 30 30 30 30
10 11 12 12 14 14 15 16 17 17 18 18 19 20 20 20 20 20 21 22 22 23 24 24 25 25 26 26 27 27 27 28 29 30 30 30 30 30 31 32 33 33 32
12 13 13 15 16 16 17 18 19 19 20 20 21 22 22 23 23 24 24 25 25 26 27 27 28 28 29 30 30 30 31 31 32 33 33 33 33 33 34 34 34 35 35
14 15 16 17 17 18 19 20 21 21 22 22 23 24 25 26 26 27 27 28 28 28 29 30 30 31 32 33 33 34 35 35 35 36 36 36 37 36 37 37 38 38 38
16 17 18 19 20 21 22 22 23 23 24 24 25 26 27 28 28 29 30 31 31 31 32 33 34 35 35 36 37 37 38 39 39 39 39 39 40 40 40 40 40 41 41
19 19 20 21 22 23 24 24 25 25 26 27 28 29 30 30 31 32 32 33 34 35 36 37 38 39 39 40 40 41 41 41 41 41 41 41 41 41 41 42 42 42 43
20 21 22 23 24 25 26 26 27 28 29 29 30 31 32 32 33 34 35 35 36 37 39 40 41 42 43 43 44 43 43 42 41 41 42 42 42 42 43 42 43 44 45
22 23 24 25 26 27 28 28 29 30 31 32 32 33 34 35 36 37 37 38 39 40 41 43 44 45 46 46 46 45 44 44 43 43 44 45 45 45 44 44 44 45 46